sat.trackr.live / text

‹ back to catalog

STARLINK-31779

NORAD 59744 · 2024-090Q

PAYLOAD ACTIVE UNKNOWN

§ Identity

Operator
Country
US
Launch date
2024-05-13
Launch site
AFETR
Launch vehicle
Mass (kg)
RCS (m²)

Purposes: comms

External: N2YO · Heavens-Above · Gunter

§ Orbital elements

Epoch: 2026-05-25T04:46:41.796768Z

Period
94.27 min
Inclination
42.9999°
Eccentricity
0.0000862
Mean motion
15.27576683 rev/d
Perigee alt
482.5 km
Apogee alt
483.7 km
Semi-major
6,861.2 km
B*
3.1871e-5
RAAN
111.2062°
Arg perigee
263.5977°
Mean anomaly
96.4777°
Rev number
11,514

§ Raw data

STARLINK-317791 59744U 24090Q   26145.19909487  .00000615  00000+0  31871-4 0  99942 59744  42.9999 111.2062 0000862 263.5977  96.4777 15.27576683115143

JSON: /api/v1/satellites/59744 · /tle

For live sub-satellite position, see the globe view (requires WebGL).

§ Visibility from observer

Set your observer location to see the next 7 days of passes ≥ 10°. The values pass through the URL so the page stays shareable.

No JS? Fill the form by hand. The geolocation button needs JavaScript.